This is the latest recevied weather packets stored in our database for station/object W8LMG. If no packets are shown the sender has not sent any weather packets the latest 10 day(s).
| Time | Temp. | Humidity | Pressure | Rain* | Wind** | Luminosity | Snow |
|---|---|---|---|---|---|---|---|
| 1777814676 | 5.56° C | 51% | 1018.7 hPa | 0 mm | - | 323 W/m² | - |
| 1777814373 | 5.56° C | 52% | 1018.8 hPa | 0 mm | - | 242 W/m² | - |
| 1777814070 | 5° C | 54% | 1018.8 hPa | 0 mm | - | 269 W/m² | - |
| 1777813767 | 5° C | 56% | 1018.7 hPa | 0 mm | - | 233 W/m² | - |
| 1777813464 | 5° C | 57% | 1018.6 hPa | 0 mm | - | 320 W/m² | - |
| 1777813162 | 4.44° C | 58% | 1018.5 hPa | 0 mm | - | 319 W/m² | - |
| 1777812859 | 5° C | 61% | 1018.6 hPa | 0 mm | - | 187 W/m² | - |
| 1777812555 | 4.44° C | 62% | 1018.6 hPa | 0 mm | - | 268 W/m² | - |
| 1777812254 | 3.89° C | 63% | 1018.7 hPa | 0 mm | - | 137 W/m² | - |
| 1777811951 | 3.89° C | 65% | 1018.4 hPa | 0 mm | - | 125 W/m² | - |
| 1777811650 | 3.89° C | 67% | 1018.4 hPa | 0 mm | - | 121 W/m² | - |
| 1777811350 | 3.89° C | 72% | 1018.5 hPa | 0 mm | - | 37 W/m² | - |
| 1777811048 | 2.78° C | 75% | 1018.6 hPa | 0 mm | - | 80 W/m² | - |
| 1777810745 | 2.22° C | 83% | 1018.3 hPa | 0 mm | - | 61 W/m² | - |
| 1777810442 | 1.67° C | 83% | 1018.5 hPa | 0 mm | - | 62 W/m² | - |
| 1777810137 | 1.11° C | 87% | 1018.3 hPa | 0 mm | - | 38 W/m² | - |
| 1777809835 | 0.56° C | 88% | 1018.3 hPa | 0 mm | - | 75 W/m² | - |
| 1777809533 | 0° C | 94% | 1018.3 hPa | 0 mm | - | 34 W/m² | - |
| 1777809230 | -0.56° C | 95% | 1018.5 hPa | 0 mm | - | 26 W/m² | - |
| 1777808928 | -1.11° C | 95% | 1018.6 hPa | 0 mm | - | 24 W/m² | - |
| 1777808624 | -1.11° C | 95% | 1018.2 hPa | 0 mm | - | 23 W/m² | - |
| 1777808321 | -1.11° C | 95% | 1018.4 hPa | 0 mm | - | 22 W/m² | - |
| 1777808020 | -1.11° C | 95% | 1018.2 hPa | 0 mm | - | 21 W/m² | - |
| 1777807716 | -1.67° C | 95% | 1018 hPa | 0 mm | - | 20 W/m² | - |
| 1777807415 | -1.67° C | 95% | 1018 hPa | 0 mm | - | 19 W/m² | - |
* Rain latest hour (hover to see other rain measurements)
** Current wind speed in m/s (hover to see current wind gust speed)